Regional Weather Roundup
Issued by NWS

Home | Current Version | Previous Version | Graphics & Text | Print | Product List | Glossary On
Versions: 1 2 3 4 5 6 7 8 9 10 11 12 13 14 15 16 17 18 19 20 21 22 23 24 25 26 27 28 29 30 31 32 33 34 35 36 37 38 39 40 41 42 43 44 45 46 47 48 49 50
000
ASUS45 KBOI 211310
RWRID

IDAHO REGIONAL WEATHER ROUNDUP
NATIONAL WEATHER SERVICE BOISE ID
700 AM MDT FRI JUL 21 2017

NOTE: "FAIR" INDICATES FEW OR NO CLOUDS BELOW 12000 FEET
WITH NO SIGNIFICANT WEATHER AND/OR OBSTRUCTIONS TO VISIBILITY

IDZ012-014-211400-
SOUTHWEST IDAHO


CITY           SKY/WX    TMP DP  RH WIND       PRES   REMARKS
BOISE          CLEAR     58  43  57 CALM      30.06R
CALDWELL       CLEAR     61  43  51 W6        30.06R
MOUNTAIN HOME  CLEAR     57  42  56 W6        30.06R
$$

IDZ016-017-211400-
SOUTHCENTRAL IDAHO


CITY           SKY/WX    TMP DP  RH WIND       PRES   REMARKS
BURLEY         CLEAR     55  43  63 S6        30.10R
JEROME         CLEAR     62  38  40 S5        30.10R
TWIN FALLS     CLEAR     59  40  49 S7        30.11R
$$

IDZ019>023-211400-
SOUTHEAST IDAHO


CITY           SKY/WX    TMP DP  RH WIND       PRES   REMARKS
IDAHO FALLS    CLOUDY    48  46  93 CALM      30.14R
POCATELLO      CLEAR     56  39  53 CALM      30.12R
REXBURG        CLEAR     48  43  82 NE5       30.14R
$$

IDZ006-010-011-018-031-032-211400-
CENTRAL IDAHO MOUNTAINS


CITY           SKY/WX    TMP DP  RH WIND       PRES   REMARKS
MCCALL         CLEAR     47  38  71 CALM      30.16R
HAILEY         CLEAR     52  32  46 W12       30.20R
STANLEY          N/A     34  27  75 SE5       30.29R WCI  30
SALMON         NOT AVBL
CHALLIS        CLEAR     50  33  52 CALM      30.19R
$$

IDZ002-004-006-007-026-211400-
NORTHERN IDAHO


CITY           SKY/WX    TMP DP  RH WIND       PRES   REMARKS
LEWISTON       CLEAR     59  39  47 CALM      30.09R
LOWELL           N/A     52  44  74 NW3       30.14R
COEUR D`ALENE  CLEAR     56  44  64 S8        30.09R
MULLAN PASS    CLEAR     47  37  68 VRB3      30.18R
$$



USA.gov is the U.S. government's official web portal to all federal, state and local government web resources and services.